Weather History for Anoka County, MN

Change the Weather History Date:

Sunday, November 27, 2011

  Actual Average Record
Temperature  
Mean Temperature 34 °F -  
Max Temperature 37 °F 34 °F 60 °F (1998)
Min Temperature 30 °F 21 °F -2 °F (1996)
Degree Days  
Heating Degree Days 30    
Moisture  
Dew Point 28 °F    
Average Humidity 76    
Maximum Humidity 86    
Minimum Humidity 70    
Precipitation  
Precipitation 0.00 in - - ()
Sea Level Pressure  
Sea Level Pressure 30.13 in    
Wind  
Wind Speed 14 mph (NW)    
Max Wind Speed 23 mph    
Max Gust Speed 32 mph    
Visibility 10 miles    
Events      
Averages and records for this station are not official NWS values.
T = Trace of Precipitation, MM = Missing Value Source: NWS Daily Summary

Daily Weather History Graph

Daily Weather History Graph

Search for Another Location

Airport:

Trip Planner

Search our weather history database for the weather conditions in past years. The results will help you decide how hot, cold, wet, or windy it might be!

Date:

Astronomy

Nov. 27, 2011 Rise Set
Actual Time 7:26 AM CST 4:34 PM CST
Civil Twilight 6:53 AM CST 5:07 PM CST
Nautical Twilight 6:16 AM CST 5:43 PM CST
Astronomical Twilight 5:41 AM CST 6:18 PM CST
Moon 9:52 AM CST (11/27) 7:12 PM CST (11/27)
Length of Visible Light 10h 13m
Length of Day
9h 07m
Waxing Crescent, 8% of the Moon is Illuminated
Nov 27
Waxing Crescent
Dec 2
First Quarter
Dec 10
Full
Dec 17
Last Quarter
Dec 24
New

Hourly Weather History & Observations

Time (CST) Temp. Windchill Dew Point Humidity Pressure Visibility Wind Dir Wind Speed Gust Speed Precip Events Conditions
12:14 AM 37.4 °F 28.2 °F 30.2 °F 75% 30.04 in 10.0 mi NW 16.1 mph 19.6 mph N/A   Overcast
12:34 AM 37.4 °F 28.5 °F 30.2 °F 75% 30.05 in 10.0 mi NW 15.0 mph 19.6 mph N/A   Overcast
12:54 AM 37.4 °F 28.2 °F 30.2 °F 75% 30.05 in 10.0 mi NW 16.1 mph 21.9 mph N/A   Overcast
1:14 AM 37.4 °F 28.5 °F 30.2 °F 75% 30.05 in 10.0 mi NW 15.0 mph 23.0 mph N/A   Overcast
1:33 AM 35.6 °F 26.6 °F 30.2 °F 81% 30.06 in 7.0 mi NW 13.8 mph - N/A   Overcast
1:54 AM 35.6 °F 25.2 °F 30.2 °F 81% 30.06 in 10.0 mi NW 18.4 mph 23.0 mph N/A   Overcast
2:14 AM 37.4 °F 27.8 °F 30.2 °F 75% 30.07 in 10.0 mi NW 17.3 mph 21.9 mph N/A   Overcast
2:34 AM 35.6 °F 26.2 °F 30.2 °F 81% 30.08 in 10.0 mi NNW 15.0 mph 20.7 mph N/A   Overcast
2:54 AM 35.6 °F 25.2 °F 28.4 °F 75% 30.08 in 10.0 mi NW 18.4 mph 21.9 mph N/A   Overcast
3:14 AM 35.6 °F 25.9 °F 28.4 °F 75% 30.08 in 10.0 mi NW 16.1 mph 19.6 mph N/A   Overcast
3:34 AM 35.6 °F 25.2 °F 28.4 °F 75% 30.08 in 10.0 mi NNW 18.4 mph 25.3 mph N/A   Overcast
3:54 AM 35.6 °F 25.2 °F 28.4 °F 75% 30.08 in 10.0 mi NNW 18.4 mph - N/A   Overcast
4:14 AM 35.6 °F 24.0 °F 28.4 °F 75% 30.09 in 10.0 mi NNW 23.0 mph 27.6 mph N/A   Overcast
4:34 AM 35.6 °F 25.5 °F 28.4 °F 75% 30.09 in 10.0 mi NW 17.3 mph 20.7 mph N/A   Overcast
5:14 AM 35.6 °F 24.2 °F 26.6 °F 70% 30.11 in 10.0 mi North 21.9 mph 32.2 mph N/A   Overcast
5:34 AM 35.6 °F 26.2 °F 28.4 °F 75% 30.11 in 10.0 mi NNW 15.0 mph 21.9 mph N/A   Overcast
5:54 AM 35.6 °F 26.2 °F 28.4 °F 75% 30.12 in 10.0 mi NNW 15.0 mph 21.9 mph N/A   Overcast
6:13 AM 35.6 °F 26.6 °F 28.4 °F 75% 30.12 in 10.0 mi NNW 13.8 mph 26.5 mph N/A   Overcast
6:34 AM 35.6 °F 25.5 °F 28.4 °F 75% 30.13 in 10.0 mi NNW 17.3 mph 25.3 mph N/A   Overcast
7:45 AM 35.6 °F 24.5 °F 26.6 °F 70% 30.15 in 10.0 mi NNW 20.7 mph 26.5 mph N/A   Overcast
9:50 AM 35.6 °F 26.2 °F 26.6 °F 70% 30.17 in 10.0 mi NNW 15.0 mph 21.9 mph N/A   Overcast
10:50 AM 35.6 °F 26.2 °F 26.6 °F 70% 30.18 in 10.0 mi NNW 15.0 mph - N/A   Overcast
11:55 AM 35.6 °F 27.1 °F 26.6 °F 70% 30.17 in 10.0 mi North 12.7 mph 18.4 mph N/A   Overcast
1:55 PM 33.8 °F 24.3 °F 26.6 °F 75% 30.17 in 10.0 mi North 13.8 mph - N/A   Overcast
2:55 PM 33.8 °F 24.3 °F 26.6 °F 75% 30.17 in 10.0 mi North 13.8 mph - N/A   Overcast
3:45 PM 33.8 °F 26.4 °F 26.6 °F 75% 30.17 in 10.0 mi NW 9.2 mph - N/A   Overcast
4:45 PM 33.8 °F 27.7 °F 26.6 °F 75% 30.18 in 10.0 mi NW 6.9 mph - N/A   Overcast
5:45 PM 33.8 °F 26.4 °F 26.6 °F 75% 30.19 in 10.0 mi NNW 9.2 mph - N/A   Overcast
6:45 PM 33.8 °F 28.6 °F 26.6 °F 75% 30.19 in 10.0 mi North 5.8 mph - N/A   Overcast
7:50 PM 33.8 °F 29.6 °F 26.6 °F 75% 30.18 in 10.0 mi North 4.6 mph - N/A   Overcast
8:45 PM 32.0 °F - 26.6 °F 80% 30.18 in 10.0 mi Calm Calm - N/A   Overcast
9:14 PM 32.0 °F - 26.6 °F 80% 30.16 in 10.0 mi Calm Calm - N/A   Overcast
9:33 PM 32.0 °F 27.5 °F 26.6 °F 80% 30.16 in 10.0 mi SSW 4.6 mph - N/A   Overcast
9:54 PM 32.0 °F - 26.6 °F 80% 30.16 in 10.0 mi Calm Calm - N/A   Overcast
10:14 PM 32.0 °F 28.7 °F 26.6 °F 80% 30.17 in 10.0 mi SSW 3.5 mph - N/A   Overcast
10:33 PM 32.0 °F 28.7 °F 26.6 °F 80% 30.17 in 10.0 mi SW 3.5 mph - N/A   Overcast
10:54 PM 32.0 °F 28.7 °F 26.6 °F 80% 30.16 in 10.0 mi WSW 3.5 mph - N/A   Overcast
11:14 PM 32.0 °F 27.5 °F 26.6 °F 80% 30.17 in 10.0 mi South 4.6 mph - N/A   Overcast
11:33 PM 32.0 °F 28.7 °F 26.6 °F 80% 30.16 in 10.0 mi SW 3.5 mph - N/A   Overcast
11:54 PM 30.2 °F 24.3 °F 26.6 °F 86% 30.15 in 10.0 mi South 5.8 mph - N/A   Overcast